Regional Weather Roundup
Issued by NWS Jackson, KY

Home | Current Version | Previous Version | Graphics & Text | Print | Product List | Glossary On
Versions: 1 2 3 4 5 6 7 8 9 10 11 12 13 14 15 16 17 18 19 20 21 22 23 24 25 26 27 28 29 30 31 32 33 34 35 36 37 38 39 40 41 42 43 44 45 46 47 48 49 50
000
ASUS43 KJKL 290810
RWRJKL

EAST KENTUCKY HOURLY WEATHER ROUNDUP
NATIONAL WEATHER SERVICE JACKSON KY
400 AM EDT SAT APR 29 2017

NOTE: "FAIR" INDICATES FEW OR NO CLOUDS BELOW 12,000 FEET WITH
NO SIGNIFICANT WEATHER AND/OR OBSTRUCTIONS TO VISIBILITY.

* THESE REPORTS ARE NOT UNDER NWS QUALITY CONTROL AND MAY NOT
  REPORT WEATHER SUCH AS PRECIPITATION AND FOG.

KYZ079-080-083-085-087-088-110-112-115-119-120-290900
...EASTERN KENTUCKY...

CITY           SKY/WX    TMP DP  RH WIND       PRES   REMARKS
JACKSON        CLOUDY    73  63  70 VRB5      30.05R
LONDON         CLOUDY    65  61  87 CALM      30.04R
SOMERSET*      CLOUDY    72  63  73 CALM      30.03R
MONTICELLO*    CLOUDY    74  66  76 VRB7      30.03R
WILLIAMSBURG*  CLOUDY    75  64  69 S12G20    30.03S
MIDDLESBORO*   PTCLDY    75  64  68 SW12      30.07R
HARLAN APT*    PTSUNNY   75  59  57 CALM      30.08R
PIKE CO APT*     N/A     72  64  75 S5        30.07R
BIG SANDY APT* CLOUDY    73  63  70 S3        30.05R
MOREHEAD APT*  CLOUDY    72  57  60 CALM      30.04R
$$

KYZ035-036-041-042-044-050-067-078-099-290900
...CENTRAL KENTUCKY...

CITY           SKY/WX    TMP DP  RH WIND       PRES   REMARKS
MT STERLING*   CLOUDY    70  59  68 CALM      30.04S
FLEMING/MASON* CLOUDY    63  62  95 S7        30.00F
DANVILLE*      CLOUDY    70  64  83 S6        30.01S
LEXINGTON      CLOUDY    69  59  70 N12       30.03R
FRANKFORT      TSTM      65  60  84 VRB5G18   30.01R
LOUISVILLE     TSTM      66  63  90 S9G17     29.93F FOG
LEBANON*         N/A     75  64  69 S12       29.98S
GLASGOW*       CLOUDY    76  65  70 S8        29.96S
BOWLING GREEN  CLOUDY    76  69  79 S8        29.93S
$$

KYZ091>093-OHZ055-061-077-WVZ005-015-034-035-042-290900
...SOUTHERN OHIO/WEST VIRGINIA...

CITY           SKY/WX    TMP DP  RH WIND       PRES   REMARKS
COVINGTON      RAIN      66  65  96 S12       29.93F FOG
COLUMBUS       LGT RAIN  58  58 100 NW3       29.97R
DAYTON         TSTM      59  58  96 SE3       29.95R
WILMINGTON     RAIN      60  60 100 SE5       29.95F FOG
HUNTINGTON     CLOUDY    70  59  68 SE6       30.00S
CHARLESTON     CLOUDY    69  56  62 E7        30.02F
PINEVILLE*     CLOUDY    62  60  92 MISG      30.15R
BECKLEY        CLOUDY    68  57  68 S10       30.13R
BLUEFIELD      CLOUDY    66  55  67 S5        30.17R
LOGAN CO APT*    N/A     72  61  68 S7        30.06S
$$

VAZ002-007-008-TNZ017-027-036-066-071-290900
...SOUTHWEST VIRGINIA/EAST TENNESSEE...

CITY           SKY/WX    TMP DP  RH WIND       PRES   REMARKS
WISE*          MOCLDY    68  57  68 CALM      30.15S
JONESVILLE*    PTSUNNY   64  64 100 CALM      30.11R
ABINGDON*      CLOUDY    63  61  93 CALM      30.14R
BRISTOL        CLOUDY    62  59  90 CALM      30.11R
MORRISTOWN*    SUNNY     63  63 100 CALM      30.07R
SEVIERVILLE*   SUNNY     63  61  94 CALM      30.05R
KNOXVILLE      CLEAR     70  62  76 CALM      30.04R
LAFOLLETTE*    CLOUDY    75  64  69 SE5       30.08R
OAK RIDGE      CLEAR     70  64  81 CALM      30.06R
CROSSVILLE     CLEAR     70  64  81 VRB3      30.07R
NASHVILLE      MOCLDY    77  68  73 S12       29.94R
$$

...KEY TO REMARKS...
VSB - VISIBILITY IN MILES
WCI - WIND CHILL INDEX
HX  - HEAT INDEX

$$



USA.gov is the U.S. government's official web portal to all federal, state and local government web resources and services.